Location: Bangkok
(13.7500°N, 100.5170°E)
Time: 11:37:40
(UTC+07:00)

Hubble Space Telescope - Visible Passes

Search period start: 03 August 2015 00:00
Search period end: 13 August 2015 00:00
Orbit: 541 x 545 km, 28.5° (Epoch: 02 August)

Date Brightness Start Highest point End Pass type
(mag) Time Alt. Az. Time Alt. Az. Time Alt. Az.
03 Aug 2.6 05:18:21 14° SW 05:19:23 15° SSW 05:21:40 10° S visible
03 Aug 3.0 20:38:34 10° WNW 20:41:38 19° NNW 20:42:52 17° N visible
04 Aug 3.3 20:30:15 10° NW 20:32:55 16° NNW 20:34:54 12° NNE visible
05 Aug 3.5 20:21:59 10° NW 20:24:13 14° NNW 20:26:24 10° NNE visible
06 Aug 3.5 20:13:47 10° NW 20:15:32 12° N 20:17:14 10° NNE visible
07 Aug 3.6 20:05:38 10° NNW 20:06:51 11° N 20:08:03 10° N visible
08 Aug 3.6 19:57:31 10° NNW 19:58:12 10° N 19:58:52 10° N visible
10 Aug 3.6 19:40:34 10° N 19:40:53 10° N 19:41:13 10° N visible
11 Aug 3.5 19:31:20 10° N 19:32:13 11° N 19:33:07 10° NNE visible
11 Aug 3.8 21:11:12 10° NNW 21:11:37 12° NNW 21:11:37 12° NNW visible
12 Aug 3.3 19:22:09 10° NNW 19:23:33 11° N 19:24:58 10° NNE visible
12 Aug 3.5 21:02:06 10° NW 21:03:06 15° NNW 21:03:06 15° NNW visible
